TimeEDT,TemperatureF,Dew PointF,Humidity,Sea Level PressureIn,VisibilityMPH,Wind Direction,Wind SpeedMPH,Gust SpeedMPH,PrecipitationIn,Events,Conditions,WindDirDegrees,DateUTC
12:54 AM,55.9,54.0,93,30.27,10.0,Calm,Calm,-,N/A,,Partly Cloudy,0,2013-09-29 04:54:00
1:54 AM,55.0,53.1,93,30.26,7.0,Calm,Calm,-,N/A,,Partly Cloudy,0,2013-09-29 05:54:00
2:54 AM,54.0,52.0,93,30.25,7.0,Calm,Calm,-,N/A,,Partly Cloudy,0,2013-09-29 06:54:00
3:54 AM,51.1,48.0,89,30.24,7.0,NE,4.6,-,N/A,,Partly Cloudy,50,2013-09-29 07:54:00
4:03 AM,51.8,50.0,94,30.24,3.0,NNE,3.5,-,N/A,,Mostly Cloudy,30,2013-09-29 08:03:00
4:07 AM,51.8,50.0,94,30.24,1.8,Calm,Calm,-,N/A,,Mostly Cloudy,0,2013-09-29 08:07:00
4:54 AM,54.0,52.0,93,30.23,1.5,Calm,Calm,-,N/A,,Overcast,0,2013-09-29 08:54:00
5:10 AM,53.6,51.8,94,30.23,1.0,North,3.5,-,N/A,,Mostly Cloudy,350,2013-09-29 09:10:00
5:26 AM,53.6,51.8,94,30.23,0.5,North,3.5,-,N/A,Fog,Fog,10,2013-09-29 09:26:00
5:54 AM,53.1,52.0,96,30.24,0.5,Calm,Calm,-,N/A,Fog,Fog,0,2013-09-29 09:54:00
6:01 AM,53.6,51.8,94,30.24,0.2,NE,3.5,-,N/A,Fog,Fog,40,2013-09-29 10:01:00
6:30 AM,53.6,51.8,94,30.24,0.1,Calm,Calm,-,N/A,Fog,Fog,0,2013-09-29 10:30:00
6:45 AM,53.6,51.8,94,30.24,0.2,Calm,Calm,-,N/A,Fog,Fog,0,2013-09-29 10:45:00
6:54 AM,53.1,52.0,96,30.24,0.1,Calm,Calm,-,N/A,Fog,Fog,0,2013-09-29 10:54:00
7:54 AM,53.1,52.0,96,30.24,0.1,Calm,Calm,-,0.00,Fog,Heavy Drizzle,0,2013-09-29 11:54:00
8:23 AM,53.6,51.8,94,30.24,0.2,Calm,Calm,-,0.00,Fog,Fog,0,2013-09-29 12:23:00
8:38 AM,53.6,53.6,100,30.24,1.0,Calm,Calm,-,0.00,,Overcast,0,2013-09-29 12:38:00
8:54 AM,54.0,53.1,97,30.25,0.5,Calm,Calm,-,0.00,,Overcast,0,2013-09-29 12:54:00
9:31 AM,55.4,53.6,94,30.25,1.5,East,3.5,-,N/A,,Overcast,80,2013-09-29 13:31:00
9:54 AM,55.9,53.1,90,30.25,8.0,Calm,Calm,-,N/A,,Mostly Cloudy,0,2013-09-29 13:54:00
10:16 AM,57.2,53.6,88,30.25,9.0,Calm,Calm,-,N/A,,Mostly Cloudy,0,2013-09-29 14:16:00
10:47 AM,57.2,53.6,88,30.24,10.0,SE,4.6,-,N/A,,Scattered Clouds,140,2013-09-29 14:47:00
10:54 AM,57.9,53.1,84,30.24,10.0,ENE,3.5,-,N/A,,Partly Cloudy,70,2013-09-29 14:54:00
11:54 AM,61.0,52.0,72,30.22,10.0,Variable,4.6,-,N/A,,Scattered Clouds,0,2013-09-29 15:54:00
12:54 PM,61.0,51.1,70,30.21,10.0,East,6.9,-,N/A,,Scattered Clouds,90,2013-09-29 16:54:00
1:54 PM,62.1,51.1,67,30.20,10.0,East,8.1,-,N/A,,Scattered Clouds,90,2013-09-29 17:54:00
2:54 PM,61.0,50.0,67,30.17,10.0,East,6.9,-,N/A,,Scattered Clouds,100,2013-09-29 18:54:00
3:54 PM,61.0,50.0,67,30.16,10.0,East,9.2,-,N/A,,Scattered Clouds,100,2013-09-29 19:54:00
4:54 PM,60.1,50.0,69,30.16,10.0,East,8.1,-,N/A,,Partly Cloudy,90,2013-09-29 20:54:00
5:54 PM,57.9,50.0,75,30.16,10.0,East,9.2,-,N/A,,Partly Cloudy,100,2013-09-29 21:54:00
6:54 PM,57.0,50.0,77,30.15,10.0,ESE,9.2,-,N/A,,Partly Cloudy,110,2013-09-29 22:54:00
7:54 PM,55.9,51.1,84,30.15,10.0,SE,8.1,-,N/A,,Partly Cloudy,130,2013-09-29 23:54:00
8:54 PM,55.9,51.1,84,30.14,10.0,ESE,8.1,-,N/A,,Clear,120,2013-09-30 00:54:00
9:48 PM,57.2,53.6,88,30.13,10.0,ESE,5.8,-,N/A,,Mostly Cloudy,110,2013-09-30 01:48:00
9:54 PM,57.0,53.1,87,30.13,10.0,East,4.6,-,N/A,,Mostly Cloudy,90,2013-09-30 01:54:00
10:02 PM,55.4,51.8,88,30.13,10.0,ESE,4.6,-,N/A,,Scattered Clouds,110,2013-09-30 02:02:00
10:23 PM,55.4,53.6,94,30.14,10.0,ESE,5.8,-,N/A,,Mostly Cloudy,120,2013-09-30 02:23:00
10:54 PM,57.0,53.1,87,30.13,10.0,Calm,Calm,-,N/A,,Mostly Cloudy,0,2013-09-30 02:54:00
11:01 PM,57.2,53.6,88,30.13,10.0,SE,3.5,-,N/A,,Scattered Clouds,130,2013-09-30 03:01:00
11:15 PM,57.2,53.6,88,30.13,10.0,SSE,6.9,-,N/A,,Mostly Cloudy,150,2013-09-30 03:15:00
11:54 PM,57.9,54.0,87,30.13,10.0,Calm,Calm,-,N/A,,Overcast,0,2013-09-30 03:54:00